This is the latest recevied weather packets stored in our database for station/object KB9MLJ. If no packets are shown the sender has not sent any weather packets the latest 1 day(s).
| Time | Temp. | Humidity | Pressure | Rain* | Wind** | Luminosity | Snow |
|---|---|---|---|---|---|---|---|
| 1777962631 | 15° C | 72% | 1003 hPa | 0 mm | 0.89 m/s, 274° | 0 W/m² | - |
| 1777962328 | 15° C | 72% | 1002.6 hPa | 0 mm | 1.34 m/s, 305° | 0 W/m² | - |
| 1777962025 | 15° C | 73% | 1002.6 hPa | 0 mm | 1.79 m/s, 340° | 0 W/m² | - |
| 1777961723 | 15° C | 74% | 1002.6 hPa | 0 mm | 2.24 m/s, 323° | 0 W/m² | - |
| 1777961420 | 15.56° C | 76% | 1002.6 hPa | 0 mm | 2.68 m/s, 307° | 0 W/m² | - |
| 1777961118 | 15.56° C | 77% | 1002.3 hPa | 0 mm | 2.24 m/s, 320° | 0 W/m² | - |
| 1777960814 | 15.56° C | 78% | 1002.3 hPa | 0 mm | 2.24 m/s, 324° | 0 W/m² | - |
| 1777960509 | 15.56° C | 81% | 1002.3 hPa | 0 mm | 1.79 m/s, 305° | 0 W/m² | - |
| 1777960207 | 15.56° C | 80% | 1002.6 hPa | 0 mm | 1.79 m/s, 279° | 0 W/m² | - |
| 1777959904 | 15.56° C | 81% | 1002.3 hPa | 0 mm | 2.24 m/s, 290° | 0 W/m² | - |
| 1777959602 | 15.56° C | 82% | 1002 hPa | 0 mm | 1.34 m/s, 310° | 0 W/m² | - |
| 1777959299 | 15° C | 84% | 1002.3 hPa | 0 mm | 1.34 m/s, 312° | 0 W/m² | - |
| 1777958995 | 15° C | 84% | 1002 hPa | 0 mm | 1.34 m/s, 312° | 0 W/m² | - |
| 1777958693 | 15° C | 85% | 1002.3 hPa | 0 mm | 0.89 m/s, 312° | 0 W/m² | - |
| 1777958390 | 15° C | 86% | 1002.3 hPa | 0 mm | 1.34 m/s, 283° | 0 W/m² | - |
| 1777958086 | 15° C | 87% | 1002.6 hPa | 0 mm | 1.34 m/s, 281° | 0 W/m² | - |
| 1777957785 | 14.44° C | 89% | 1002.3 hPa | 0 mm | 1.79 m/s, 279° | 0 W/m² | - |
| 1777957483 | 14.44° C | 93% | 1002.6 hPa | 0 mm | 1.79 m/s, 276° | 0 W/m² | - |
| 1777957179 | 13.89° C | 95% | 1002.3 hPa | 0 mm | 0.89 m/s, 269° | 0 W/m² | - |
| 1777956876 | 13.89° C | 97% | 1002.3 hPa | 0 mm | 1.34 m/s, 263° | 0 W/m² | - |
| 1777956573 | 13.33° C | 99% | 1002 hPa | 0 mm | 2.24 m/s, 263° | 0 W/m² | - |
| 1777956270 | 13.33° C | 99% | 1002 hPa | 0 mm | 1.34 m/s, 238° | 0 W/m² | - |
| 1777955966 | 13.33° C | 99% | 1002.3 hPa | 0 mm | 1.34 m/s, 263° | 0 W/m² | - |
| 1777955663 | 13.33° C | 99% | 1002 hPa | 0 mm | 1.34 m/s, 260° | 0 W/m² | - |
| 1777955360 | 13.33° C | 99% | 1002 hPa | 0 mm | 0.89 m/s, 252° | 0 W/m² | - |
* Rain latest hour (hover to see other rain measurements)
** Current wind speed in m/s (hover to see current wind gust speed)